Tracking 31027 objects as of 19-Jul-2025
HD Live streaming from Space Station
objects crossing your sky now

STARLINK-1185

Track STARLINK-1185 now!
10-day predictions
STARLINK-1185 is classified as:


NORAD ID: 45087
Int'l Code: 2020-006AV
Perigee: 553.7 km
Apogee: 555.0 km
Inclination: 53.1 °
Period: 95.6 minutes
Semi major axis: 6925 km
RCS: Unknown
Launch date: January 29, 2020
Source: United States (US)
Launch site: AIR FORCE EASTERN TEST RANGE (AFETR)
Your satellite tracking list
NSIGHT-1
Track 1 satellite(s)




NASA's NSSDC Master Catalog

Two Line Element Set (TLE):
1 45087U 20006AV  25199.47272015 -.00000351  00000-0 -46979-5 0  9997
2 45087  53.0533 218.0586 0000920  86.2930 273.8164 15.06393596301725
Source of the keplerian elements: AFSPC